Regional Weather Roundup
Issued by NWS Columbia, SC

Home | Current Version | Previous Version | Text Only | Print | Product List | Glossary On
Versions: 1 2 3 4 5 6 7 8 9 10 11 12 13 14 15 16 17 18 19 20 21 22 23 24 25 26 27 28 29 30 31 32 33 34 35 36 37 38 39 40 41 42 43 44 45 46 47 48 49
000
ASUS42 KCAE 271410
RWRCAE
REGIONAL WEATHER ROUNDUP
NATIONAL WEATHER SERVICE COLUMBIA SC
1000 AM EDT FRI MAY 27 2016

NOTE: "FAIR" INDICATES FEW OR NO CLOUDS BELOW 12,000 FEET WITH NO
SIGNIFICANT WEATHER AND/OR OBSTRUCTIONS TO VISIBILITY.

NOT ALL STATIONS ARE QUALITY CONTROLLED BY THE NATIONAL
WEATHER SERVICE. USE DATA WITH CAUTION...ESPECIALLY
DEWPOINT OBSERVATIONS.

SCZ001>056-GAZ040-063>065-077-271500-
...UPSTATE SOUTH CAROLINA...

CITY           SKY/WX    TMP DP  RH WIND       PRES   REMARKS
ANDERSON       SUNNY     74  60  61 SW7       30.17R
LIBERTY        MOSUNNY   75  63  66 SW7       30.17S
SPARTANBURG    SUNNY     73  59  60 SW6       30.17R
CLEMSON        MOSUNNY   76  61  59 VRB3      30.18R
GREENVILLE     MOSUNNY   76  61  59 SW6       30.18R
GREENWOOD      MOSUNNY   75  61  61 VRB7      30.19R
GREER          SUNNY     76  62  62 SW7       30.16R
ROCK HILL      SUNNY     76  62  62 SW8       30.18S
CHESTER        SUNNY     73  61  64 SW5       30.18S
LAURENS        PTSUNNY   73  61  64 SW10      30.17S


...CENTRAL SOUTH CAROLINA...

CITY           SKY/WX    TMP DP  RH WIND       PRES   REMARKS
COLUMBIA APT   PTSUNNY   78  64  61 CALM      30.15S
COLUMBIA OWENS MOSUNNY   77  61  57 W5        30.16F
MCENTIRE ANGB  MOSUNNY   77  62  60 VRB6      30.16S
ORANGEBURG     SUNNY     78  62  57 CALM      30.15F
SUMTER SHAW    SUNNY     77  63  61 S5        30.14S
NEWBERRY       SUNNY     75  63  64 W3        30.20S
AIKEN          PTSUNNY   73  63  68 CALM      30.19S
BARNWELL       FAIR      81  66  61 E7        30.15F
MANNING        FAIR      77  61  57 CALM      30.15F
LANCASTER      SUNNY     75  64  69 S7        30.18R
WINNSBORO      SUNNY     75  63  64 S7        30.17S


...EASTERN AND COASTAL SOUTH CAROLINA...

CITY           SKY/WX    TMP DP  RH WIND       PRES   REMARKS
MYRTLE BEACH   SUNNY     81  61  50 SE8       30.18R
N MYRTLE BCH   SUNNY     78  62  57 VRB6      30.17R
CONWAY         FAIR      77  59  53 CALM      30.17S
MARION         FAIR      77  61  57 CALM      30.16F
HARTSVILLE     FAIR      73  61  64 SW5       30.17S
FLORENCE       PTSUNNY   77  63  61 S5        30.16F
DARLINGTON     PTSUNNY   75  64  68 VRB5      30.17F
CHARLESTON APT MOSUNNY   80  59  48 E10       30.14S
MOUNT PLEASANT FAIR      79  61  53 SE5       30.15S
WALTERBORO     SUNNY     81  61  50 E5        30.16R
BEAUFORT       SUNNY     79  61  53 SE9       30.13S


...EASTERN GEORGIA...

CITY           SKY/WX    TMP DP  RH WIND       PRES   REMARKS
AUGUSTA BUSH F PTSUNNY   75  64  68 VRB3      30.15S
AUGUSTA DANIEL PTSUNNY   75  62  64 CALM      30.16S
THOMSON        PTSUNNY   75  65  71 SW3       30.20S
WASHINGTON     FAIR      75  66  73 CALM      30.17R
CLAXTON        FAIR      78  63  60 E7        30.13F
SYLVANIA       SUNNY     80  63  56 SE3       30.15S
STATESBORO     SUNNY     78  63  59 SE7       30.13F
SAVANNAH       MOSUNNY   80  61  52 E8        30.13S


...SOUTHERN NORTH CAROLINA...

CITY           SKY/WX    TMP DP  RH WIND       PRES   REMARKS
CHARLOTTE      MOSUNNY   75  59  57 SW7       30.17S
WADESBORO      SUNNY     76  60  57 S3        30.16F
ROCKINGHAM     MOSUNNY   75  63  67 SW6       30.17S
RUTHERFORDTON  SUNNY     72  66  80 SW3       30.18R
ASHEVILLE      SUNNY     71  61  70 VRB3      30.20S

$$



USA.gov is the U.S. government's official web portal to all federal, state and local government web resources and services.